Year,Month,Day,Hour,Minute,Value (Times are PST for windgust in km/hr)
2010,06,03,00,00,8.10
2010,06,03,00,01,4.80
2010,06,03,00,02,4.80
2010,06,03,00,03,3.20
2010,06,03,00,04,12.90
2010,06,03,00,05,14.50
2010,06,03,00,06,4.80
2010,06,03,00,07,6.40
2010,06,03,00,08,6.40
2010,06,03,00,09,8.10
2010,06,03,00,10,4.80
2010,06,03,00,11,8.10
2010,06,03,00,12,14.50
2010,06,03,00,13,19.30
2010,06,03,00,14,9.60
2010,06,03,00,15,8.10
2010,06,03,00,16,8.10
2010,06,03,00,17,6.40
2010,06,03,00,18,6.40
2010,06,03,00,19,11.30
2010,06,03,00,20,8.10
2010,06,03,00,21,6.40
2010,06,03,00,22,1.60
2010,06,03,00,23,3.20
2010,06,03,00,24,11.30
2010,06,03,00,25,9.60
2010,06,03,00,26,6.40
2010,06,03,00,27,6.40
2010,06,03,00,28,16.10
2010,06,03,00,29,11.30
2010,06,03,00,30,11.30
2010,06,03,00,31,11.30
2010,06,03,00,32,8.10
2010,06,03,00,33,4.80
2010,06,03,00,34,6.40
2010,06,03,00,35,9.60
2010,06,03,00,36,6.40
2010,06,03,00,37,3.20
2010,06,03,00,38,1.60
2010,06,03,00,40,3.20
2010,06,03,00,41,1.60
2010,06,03,00,42,1.60
2010,06,03,00,43,3.20
2010,06,03,00,44,1.60
2010,06,03,00,45,1.60
2010,06,03,00,46,1.60
2010,06,03,00,47,6.40
2010,06,03,00,48,8.10
2010,06,03,00,49,4.80
2010,06,03,00,50,4.80
2010,06,03,00,51,3.20
2010,06,03,00,52,6.40
2010,06,03,00,53,4.80
2010,06,03,00,54,4.80
2010,06,03,00,55,8.10
2010,06,03,00,56,4.80
2010,06,03,00,57,6.40
2010,06,03,00,58,6.40
2010,06,03,00,59,9.60
2010,06,03,01,00,6.40
2010,06,03,01,01,3.20
2010,06,03,01,02,6.40
2010,06,03,01,03,16.10
2010,06,03,01,04,9.60
2010,06,03,01,05,3.20
2010,06,03,01,06,8.10
2010,06,03,01,07,11.30
2010,06,03,01,08,8.10
2010,06,03,01,09,6.40
2010,06,03,01,10,9.60
2010,06,03,01,11,8.10
2010,06,03,01,12,4.80
2010,06,03,01,13,6.40
2010,06,03,01,14,8.10
2010,06,03,01,15,6.40
2010,06,03,01,16,8.10
2010,06,03,01,17,6.40
2010,06,03,01,18,14.50
2010,06,03,01,19,6.40
2010,06,03,01,20,8.10
2010,06,03,01,21,11.30
2010,06,03,01,22,9.60
2010,06,03,01,23,1.60
2010,06,03,01,24,9.60
2010,06,03,01,25,6.40
2010,06,03,01,26,3.20
2010,06,03,01,27,4.80
2010,06,03,01,28,6.40
2010,06,03,01,29,3.20
2010,06,03,01,30,6.40
2010,06,03,01,31,3.20
2010,06,03,01,32,4.80
2010,06,03,01,33,3.20
2010,06,03,01,34,3.20
2010,06,03,01,35,1.60
2010,06,03,01,36,1.60
2010,06,03,01,37,4.80
2010,06,03,01,38,3.20
2010,06,03,01,41,4.80
2010,06,03,01,42,3.20
2010,06,03,01,43,1.60
2010,06,03,01,44,9.60
2010,06,03,01,45,9.60
2010,06,03,01,46,1.60
2010,06,03,01,47,3.20
2010,06,03,01,48,3.20
2010,06,03,01,49,1.60
2010,06,03,01,50,1.60
2010,06,03,01,51,1.60
2010,06,03,01,52,6.40
2010,06,03,01,53,6.40
2010,06,03,01,54,6.40
2010,06,03,01,55,6.40
2010,06,03,01,56,3.20
2010,06,03,01,57,3.20
2010,06,03,01,58,1.60
2010,06,03,01,59,1.60
2010,06,03,02,03,4.80
2010,06,03,02,04,8.10
2010,06,03,02,05,6.40
2010,06,03,02,06,6.40
2010,06,03,02,07,6.40
2010,06,03,02,09,1.60
2010,06,03,02,10,6.40
2010,06,03,02,11,4.80
2010,06,03,02,12,3.20
2010,06,03,02,13,4.80
2010,06,03,02,14,8.10
2010,06,03,02,15,8.10
2010,06,03,02,16,9.60
2010,06,03,02,17,9.60
2010,06,03,02,18,14.50
2010,06,03,02,19,9.60
2010,06,03,02,20,11.30
2010,06,03,02,21,6.40
2010,06,03,02,22,6.40
2010,06,03,02,23,8.10
2010,06,03,02,24,6.40
2010,06,03,02,25,6.40
2010,06,03,02,26,4.80
2010,06,03,02,27,8.10
2010,06,03,02,28,6.40
2010,06,03,02,29,4.80
2010,06,03,02,30,3.20
2010,06,03,02,31,4.80
2010,06,03,02,32,3.20
2010,06,03,02,33,8.10
2010,06,03,02,34,4.80
2010,06,03,02,35,1.60
2010,06,03,02,36,4.80
2010,06,03,02,37,9.60
2010,06,03,02,38,8.10
2010,06,03,02,39,3.20
2010,06,03,02,40,1.60
2010,06,03,02,41,1.60
2010,06,03,02,43,1.60
2010,06,03,02,44,1.60
2010,06,03,02,45,1.60
2010,06,03,02,50,3.20
2010,06,03,02,51,9.60
2010,06,03,02,52,3.20
2010,06,03,02,53,3.20
2010,06,03,02,54,3.20
2010,06,03,02,55,3.20
2010,06,03,02,56,3.20
2010,06,03,02,57,4.80
2010,06,03,02,58,9.60
2010,06,03,02,59,6.40
2010,06,03,03,00,6.40
2010,06,03,03,01,11.30
2010,06,03,03,02,4.80
2010,06,03,03,03,4.80
2010,06,03,03,04,8.10
2010,06,03,03,05,8.10
2010,06,03,03,06,4.80
2010,06,03,03,07,9.60
2010,06,03,03,08,6.40
2010,06,03,03,09,8.10
2010,06,03,03,10,4.80
2010,06,03,03,11,4.80
2010,06,03,03,12,9.60
2010,06,03,03,13,8.10
2010,06,03,03,14,6.40
2010,06,03,03,15,8.10
2010,06,03,03,16,4.80
2010,06,03,03,17,17.70
2010,06,03,03,18,11.30
2010,06,03,03,19,9.60
2010,06,03,03,20,4.80
2010,06,03,03,21,6.40
2010,06,03,03,22,6.40
2010,06,03,03,23,4.80
2010,06,03,03,24,8.10
2010,06,03,03,25,8.10
2010,06,03,03,26,3.20
2010,06,03,03,27,9.60
2010,06,03,03,28,4.80
2010,06,03,03,29,6.40
2010,06,03,03,30,6.40
2010,06,03,03,31,11.30
2010,06,03,03,32,1.60
2010,06,03,03,33,8.10
2010,06,03,03,34,9.60
2010,06,03,03,35,3.20
2010,06,03,03,36,6.40
2010,06,03,03,37,6.40
2010,06,03,03,38,8.10
2010,06,03,03,39,6.40
2010,06,03,03,40,4.80
2010,06,03,03,41,4.80
2010,06,03,03,42,8.10
2010,06,03,03,43,9.60
2010,06,03,03,44,4.80
2010,06,03,03,45,8.10
2010,06,03,03,46,3.20
2010,06,03,03,47,4.80
2010,06,03,03,48,8.10
2010,06,03,03,49,4.80
2010,06,03,03,50,1.60
2010,06,03,03,51,3.20
2010,06,03,03,52,6.40
2010,06,03,03,53,3.20
2010,06,03,03,54,3.20
2010,06,03,03,55,4.80
2010,06,03,03,56,1.60
2010,06,03,03,57,1.60
2010,06,03,03,58,1.60
2010,06,03,03,59,3.20
2010,06,03,04,00,6.40
2010,06,03,04,01,8.10
2010,06,03,04,02,6.40
2010,06,03,04,03,6.40
2010,06,03,04,04,9.60
2010,06,03,04,05,3.20
2010,06,03,04,06,4.80
2010,06,03,04,07,4.80
2010,06,03,04,08,6.40
2010,06,03,04,09,8.10
2010,06,03,04,10,8.10
2010,06,03,04,11,8.10
2010,06,03,04,12,6.40
2010,06,03,04,13,9.60
2010,06,03,04,14,4.80
2010,06,03,04,15,3.20
2010,06,03,04,16,3.20
2010,06,03,04,17,6.40
2010,06,03,04,18,11.30
2010,06,03,04,19,8.10
2010,06,03,04,20,8.10
2010,06,03,04,21,11.30
2010,06,03,04,22,11.30
2010,06,03,04,23,8.10
2010,06,03,04,24,8.10
2010,06,03,04,25,9.60
2010,06,03,04,26,8.10
2010,06,03,04,27,6.40
2010,06,03,04,28,4.80
2010,06,03,04,29,6.40
2010,06,03,04,30,9.60
2010,06,03,04,31,8.10
2010,06,03,04,32,8.10
2010,06,03,04,33,6.40
2010,06,03,04,34,6.40
2010,06,03,04,35,8.10
2010,06,03,04,36,4.80
2010,06,03,04,37,4.80
2010,06,03,04,38,4.80
2010,06,03,04,39,3.20
2010,06,03,04,41,1.60
2010,06,03,04,43,1.60
2010,06,03,04,44,1.60
2010,06,03,04,45,3.20
2010,06,03,04,46,4.80
2010,06,03,04,47,3.20
2010,06,03,04,48,3.20
2010,06,03,04,49,3.20
2010,06,03,04,50,3.20
2010,06,03,04,51,3.20
2010,06,03,04,52,3.20
2010,06,03,04,53,1.60
2010,06,03,04,57,1.60
2010,06,03,04,58,3.20
2010,06,03,04,59,1.60
2010,06,03,05,00,1.60
2010,06,03,05,01,1.60
2010,06,03,05,03,1.60
2010,06,03,05,04,1.60
2010,06,03,05,05,1.60
2010,06,03,05,06,1.60
2010,06,03,05,07,1.60
2010,06,03,05,08,1.60
2010,06,03,05,51,1.60
2010,06,03,05,52,1.60
2010,06,03,05,53,1.60
2010,06,03,05,54,1.60
2010,06,03,05,55,1.60
2010,06,03,05,56,1.60
2010,06,03,05,57,1.60
2010,06,03,05,58,1.60
2010,06,03,05,59,1.60
2010,06,03,06,00,3.20
2010,06,03,06,01,6.40
2010,06,03,06,02,6.40
2010,06,03,06,03,4.80
2010,06,03,06,04,6.40
2010,06,03,06,05,4.80
2010,06,03,06,06,6.40
2010,06,03,06,07,4.80
2010,06,03,06,08,3.20
2010,06,03,06,09,3.20
2010,06,03,06,10,6.40
2010,06,03,06,11,4.80
2010,06,03,06,12,3.20
2010,06,03,06,13,3.20
2010,06,03,06,14,4.80
2010,06,03,06,15,6.40
2010,06,03,06,16,6.40
2010,06,03,06,17,6.40
2010,06,03,06,18,3.20
2010,06,03,06,19,3.20
2010,06,03,06,20,4.80
2010,06,03,06,21,6.40
2010,06,03,06,22,6.40
2010,06,03,06,23,4.80
2010,06,03,06,24,1.60
2010,06,03,06,25,3.20
2010,06,03,06,26,3.20
2010,06,03,06,27,3.20
2010,06,03,06,28,1.60
2010,06,03,06,29,3.20
2010,06,03,06,30,1.60
2010,06,03,06,31,1.60
2010,06,03,06,32,1.60
2010,06,03,06,39,1.60
2010,06,03,06,40,1.60
2010,06,03,06,43,1.60
2010,06,03,06,44,3.20
2010,06,03,06,47,1.60
2010,06,03,06,50,1.60
2010,06,03,06,52,1.60
2010,06,03,06,53,1.60
2010,06,03,06,54,1.60
2010,06,03,06,55,1.60
2010,06,03,06,59,1.60
2010,06,03,07,02,3.20
2010,06,03,07,03,1.60
2010,06,03,07,12,1.60
2010,06,03,07,13,4.80
2010,06,03,07,14,3.20
2010,06,03,07,15,3.20
2010,06,03,07,16,1.60
2010,06,03,07,17,3.20
2010,06,03,07,18,1.60
2010,06,03,07,23,1.60
2010,06,03,07,24,6.40
2010,06,03,07,25,8.10
2010,06,03,07,26,4.80
2010,06,03,07,27,4.80
2010,06,03,07,28,6.40
2010,06,03,07,29,6.40
2010,06,03,07,30,3.20
2010,06,03,07,31,4.80
2010,06,03,07,32,3.20
2010,06,03,07,33,1.60
2010,06,03,07,34,4.80
2010,06,03,07,35,3.20
2010,06,03,07,36,4.80
2010,06,03,07,37,3.20
2010,06,03,07,38,3.20
2010,06,03,07,39,3.20
2010,06,03,07,40,1.60
2010,06,03,07,41,1.60
2010,06,03,07,42,3.20
2010,06,03,07,44,1.60
2010,06,03,07,45,3.20
2010,06,03,07,46,3.20
2010,06,03,07,47,1.60
2010,06,03,07,48,4.80
2010,06,03,07,49,6.40
2010,06,03,07,50,6.40
2010,06,03,07,51,4.80
2010,06,03,07,52,3.20
2010,06,03,07,53,3.20
2010,06,03,07,54,3.20
2010,06,03,07,55,1.60
2010,06,03,07,56,1.60
2010,06,03,07,57,1.60
2010,06,03,07,59,3.20
2010,06,03,08,01,1.60
2010,06,03,08,04,1.60
2010,06,03,08,05,1.60
2010,06,03,08,06,1.60
2010,06,03,08,07,1.60
2010,06,03,08,08,1.60
2010,06,03,08,09,1.60
2010,06,03,08,10,1.60
2010,06,03,08,12,1.60
2010,06,03,08,13,4.80
2010,06,03,08,14,4.80
2010,06,03,08,15,3.20
2010,06,03,08,16,8.10
2010,06,03,08,17,3.20
2010,06,03,08,18,1.60
2010,06,03,08,19,1.60
2010,06,03,08,20,4.80
2010,06,03,08,21,4.80
2010,06,03,08,22,3.20
2010,06,03,08,23,3.20
2010,06,03,08,24,4.80
2010,06,03,08,25,3.20
2010,06,03,08,26,3.20
2010,06,03,08,27,6.40
2010,06,03,08,28,6.40
2010,06,03,08,29,4.80
2010,06,03,08,30,1.60
2010,06,03,08,31,3.20
2010,06,03,08,32,1.60
2010,06,03,08,33,3.20
2010,06,03,08,34,4.80
2010,06,03,08,35,6.40
2010,06,03,08,36,6.40
2010,06,03,08,37,6.40
2010,06,03,08,38,1.60
2010,06,03,08,39,4.80
2010,06,03,08,40,1.60
2010,06,03,08,41,4.80
2010,06,03,08,42,3.20
2010,06,03,08,43,8.10
2010,06,03,08,44,6.40
2010,06,03,08,45,9.60
2010,06,03,08,46,9.60
2010,06,03,08,47,4.80
2010,06,03,08,48,4.80
2010,06,03,08,49,4.80
2010,06,03,08,50,6.40
2010,06,03,08,51,8.10
2010,06,03,08,52,3.20
2010,06,03,08,53,6.40
2010,06,03,08,54,8.10
2010,06,03,08,55,3.20
2010,06,03,08,56,3.20
2010,06,03,08,57,3.20
2010,06,03,08,58,4.80
2010,06,03,08,59,4.80
2010,06,03,09,00,3.20
2010,06,03,09,01,4.80
2010,06,03,09,02,4.80
2010,06,03,09,03,6.40
2010,06,03,09,04,8.10
2010,06,03,09,05,6.40
2010,06,03,09,06,8.10
2010,06,03,09,07,6.40
2010,06,03,09,08,4.80
2010,06,03,09,09,8.10
2010,06,03,09,10,9.60
2010,06,03,09,11,6.40
2010,06,03,09,12,6.40
2010,06,03,09,13,3.20
2010,06,03,09,14,4.80
2010,06,03,09,15,8.10
2010,06,03,09,16,6.40
2010,06,03,09,17,4.80
2010,06,03,09,18,6.40
2010,06,03,09,19,4.80
2010,06,03,09,20,6.40
2010,06,03,09,21,6.40
2010,06,03,09,22,8.10
2010,06,03,09,23,6.40
2010,06,03,09,24,8.10
2010,06,03,09,25,4.80
2010,06,03,09,26,1.60
2010,06,03,09,27,8.10
2010,06,03,09,28,9.60
2010,06,03,09,29,8.10
2010,06,03,09,30,6.40
2010,06,03,09,31,8.10
2010,06,03,09,32,6.40
2010,06,03,09,33,3.20
2010,06,03,09,34,6.40
2010,06,03,09,35,9.60
2010,06,03,09,36,17.70
2010,06,03,09,37,17.70
2010,06,03,09,38,9.60
2010,06,03,09,39,8.10
2010,06,03,09,40,8.10
2010,06,03,09,41,14.50
2010,06,03,09,42,8.10
2010,06,03,09,43,11.30
2010,06,03,09,44,8.10
2010,06,03,09,45,6.40
2010,06,03,09,46,20.90
2010,06,03,09,47,14.50
2010,06,03,09,48,6.40
2010,06,03,09,49,9.60
2010,06,03,09,50,12.90
2010,06,03,09,51,14.50
2010,06,03,09,52,14.50
2010,06,03,09,53,17.70
2010,06,03,09,54,17.70
2010,06,03,09,55,9.60
2010,06,03,09,56,14.50
2010,06,03,09,57,8.10
2010,06,03,09,58,14.50
2010,06,03,09,59,14.50
2010,06,03,10,00,12.90
2010,06,03,10,01,9.60
2010,06,03,10,02,11.30
2010,06,03,10,03,11.30
2010,06,03,10,04,8.10
2010,06,03,10,05,8.10
2010,06,03,10,06,6.40
2010,06,03,10,07,16.10
2010,06,03,10,08,12.90
2010,06,03,10,09,16.10
2010,06,03,10,10,16.10
2010,06,03,10,11,14.50
2010,06,03,10,12,9.60
2010,06,03,10,13,17.70
2010,06,03,10,14,16.10
2010,06,03,10,15,11.30
2010,06,03,10,16,16.10
2010,06,03,10,17,16.10
2010,06,03,10,18,9.60
2010,06,03,10,19,6.40
2010,06,03,10,20,9.60
2010,06,03,10,21,8.10
2010,06,03,10,22,17.70
2010,06,03,10,23,9.60
2010,06,03,10,24,11.30
2010,06,03,10,25,19.30
2010,06,03,10,26,9.60
2010,06,03,10,27,11.30
2010,06,03,10,28,14.50
2010,06,03,10,29,11.30
2010,06,03,10,30,16.10
2010,06,03,10,31,8.10
2010,06,03,10,32,4.80
2010,06,03,10,33,6.40
2010,06,03,10,34,3.20
2010,06,03,10,35,9.60
2010,06,03,10,36,8.10
2010,06,03,10,37,9.60
2010,06,03,10,38,12.90
2010,06,03,10,39,11.30
2010,06,03,10,40,11.30
2010,06,03,10,41,14.50
2010,06,03,10,42,8.10
2010,06,03,10,43,11.30
2010,06,03,10,44,6.40
2010,06,03,10,45,16.10
2010,06,03,10,46,12.90
2010,06,03,10,47,16.10
2010,06,03,10,48,19.30
2010,06,03,10,49,19.30
2010,06,03,10,50,20.90
2010,06,03,10,51,20.90
2010,06,03,10,52,14.50
2010,06,03,10,53,11.30
2010,06,03,10,54,11.30
2010,06,03,10,55,11.30
2010,06,03,10,56,17.70
2010,06,03,10,57,11.30
2010,06,03,10,58,12.90
2010,06,03,10,59,6.40
2010,06,03,11,00,16.10
2010,06,03,11,01,17.70
2010,06,03,11,02,19.30
2010,06,03,11,03,19.30
2010,06,03,11,04,20.90
2010,06,03,11,05,9.60
2010,06,03,11,06,14.50
2010,06,03,11,07,8.10
2010,06,03,11,08,11.30
2010,06,03,11,09,16.10
2010,06,03,11,10,14.50
2010,06,03,11,11,11.30
2010,06,03,11,12,9.60
2010,06,03,11,13,8.10
2010,06,03,11,14,14.50
2010,06,03,11,15,19.30
2010,06,03,11,16,19.30
2010,06,03,11,17,19.30
2010,06,03,11,18,14.50
2010,06,03,11,19,8.10
2010,06,03,11,20,11.30
2010,06,03,11,21,9.60
2010,06,03,11,22,6.40
2010,06,03,11,23,16.10
2010,06,03,11,24,9.60
2010,06,03,11,25,9.60
2010,06,03,11,26,14.50
2010,06,03,11,27,11.30
2010,06,03,11,28,8.10
2010,06,03,11,29,8.10
2010,06,03,11,30,9.60
2010,06,03,11,31,9.60
2010,06,03,11,32,11.30
2010,06,03,11,33,11.30
2010,06,03,11,34,16.10
2010,06,03,11,35,9.60
2010,06,03,11,36,8.10
2010,06,03,11,37,9.60
2010,06,03,11,38,11.30
2010,06,03,11,39,12.90
2010,06,03,11,40,4.80
2010,06,03,11,41,6.40
2010,06,03,11,42,6.40
2010,06,03,11,43,9.60
2010,06,03,11,44,6.40
2010,06,03,11,45,9.60
2010,06,03,11,46,14.50
2010,06,03,11,47,9.60
2010,06,03,11,48,14.50
2010,06,03,11,49,16.10
2010,06,03,11,50,14.50
2010,06,03,11,51,22.50
2010,06,03,11,52,17.70
2010,06,03,11,53,11.30
2010,06,03,11,54,20.90
2010,06,03,11,55,17.70
2010,06,03,11,56,16.10
2010,06,03,11,57,14.50
2010,06,03,11,58,19.30
2010,06,03,11,59,19.30
2010,06,03,12,00,16.10
2010,06,03,12,01,14.50
2010,06,03,12,02,16.10
2010,06,03,12,03,8.10
2010,06,03,12,04,12.90
2010,06,03,12,05,14.50
2010,06,03,12,06,17.70
2010,06,03,12,07,17.70
2010,06,03,12,08,11.30
2010,06,03,12,09,9.60
2010,06,03,12,10,20.90
2010,06,03,12,11,17.70
2010,06,03,12,12,19.30
2010,06,03,12,13,16.10
2010,06,03,12,14,16.10
2010,06,03,12,15,14.50
2010,06,03,12,16,9.60
2010,06,03,12,17,14.50
2010,06,03,12,18,16.10
2010,06,03,12,19,19.30
2010,06,03,12,20,20.90
2010,06,03,12,21,17.70
2010,06,03,12,22,20.90
2010,06,03,12,23,16.10
2010,06,03,12,24,11.30
2010,06,03,12,25,17.70
2010,06,03,12,26,9.60
2010,06,03,12,27,11.30
2010,06,03,12,28,11.30
2010,06,03,12,29,9.60
2010,06,03,12,30,9.60
2010,06,03,12,31,8.10
2010,06,03,12,32,9.60
2010,06,03,12,33,8.10
2010,06,03,12,34,8.10
2010,06,03,12,35,8.10
2010,06,03,12,36,6.40
2010,06,03,12,37,8.10
2010,06,03,12,38,11.30
2010,06,03,12,39,8.10
2010,06,03,12,40,16.10
2010,06,03,12,41,16.10
2010,06,03,12,42,9.60
2010,06,03,12,43,8.10
2010,06,03,12,44,11.30
2010,06,03,12,45,11.30
2010,06,03,12,46,8.10
2010,06,03,12,47,8.10
2010,06,03,12,48,8.10
2010,06,03,12,49,9.60
2010,06,03,12,50,17.70
2010,06,03,12,51,11.30
2010,06,03,12,52,11.30
2010,06,03,12,53,16.10
2010,06,03,12,54,11.30
2010,06,03,12,55,11.30
2010,06,03,12,56,6.40
2010,06,03,12,57,6.40
2010,06,03,12,58,6.40
2010,06,03,12,59,8.10
2010,06,03,13,00,4.80
2010,06,03,13,01,11.30
2010,06,03,13,02,11.30
2010,06,03,13,03,11.30
2010,06,03,13,04,11.30
2010,06,03,13,05,11.30
2010,06,03,13,06,6.40
2010,06,03,13,07,8.10
2010,06,03,13,08,12.90
2010,06,03,13,09,17.70
2010,06,03,13,10,6.40
2010,06,03,13,11,9.60
2010,06,03,13,12,8.10
2010,06,03,13,13,8.10
2010,06,03,13,14,6.40
2010,06,03,13,15,4.80
2010,06,03,13,16,11.30
2010,06,03,13,17,8.10
2010,06,03,13,18,8.10
2010,06,03,13,19,6.40
2010,06,03,13,20,11.30
2010,06,03,13,21,11.30
2010,06,03,13,22,8.10
2010,06,03,13,23,11.30
2010,06,03,13,24,9.60
2010,06,03,13,25,4.80
2010,06,03,13,26,6.40
2010,06,03,13,27,8.10
2010,06,03,13,28,6.40
2010,06,03,13,29,8.10
2010,06,03,13,30,9.60
2010,06,03,13,31,9.60
2010,06,03,13,32,14.50
2010,06,03,13,33,14.50
2010,06,03,13,34,14.50
2010,06,03,13,35,12.90
2010,06,03,13,36,14.50
2010,06,03,13,37,9.60
2010,06,03,13,38,9.60
2010,06,03,13,39,12.90
2010,06,03,13,40,16.10
2010,06,03,13,41,9.60
2010,06,03,13,42,6.40
2010,06,03,13,43,9.60
2010,06,03,13,44,8.10
2010,06,03,13,45,8.10
2010,06,03,13,46,8.10
2010,06,03,13,47,6.40
2010,06,03,13,48,6.40
2010,06,03,13,49,6.40
2010,06,03,13,50,8.10
2010,06,03,13,51,4.80
2010,06,03,13,52,8.10
2010,06,03,13,53,11.30
2010,06,03,13,54,8.10
2010,06,03,13,55,12.90
2010,06,03,13,56,9.60
2010,06,03,13,57,9.60
2010,06,03,13,58,14.50
2010,06,03,13,59,11.30
2010,06,03,14,00,9.60
2010,06,03,14,01,12.90
2010,06,03,14,02,16.10
2010,06,03,14,03,17.70
2010,06,03,14,04,12.90
2010,06,03,14,05,11.30
2010,06,03,14,06,4.80
2010,06,03,14,07,9.60
2010,06,03,14,08,14.50
2010,06,03,14,09,14.50
2010,06,03,14,10,11.30
2010,06,03,14,11,11.30
2010,06,03,14,12,8.10
2010,06,03,14,13,11.30
2010,06,03,14,14,12.90
2010,06,03,14,15,9.60
2010,06,03,14,16,6.40
2010,06,03,14,17,8.10
2010,06,03,14,18,9.60
2010,06,03,14,19,8.10
2010,06,03,14,20,8.10
2010,06,03,14,21,6.40
2010,06,03,14,22,8.10
2010,06,03,14,23,8.10
2010,06,03,14,24,9.60
2010,06,03,14,25,12.90
2010,06,03,14,26,14.50
2010,06,03,14,27,8.10
2010,06,03,14,28,8.10
2010,06,03,14,29,3.20
2010,06,03,14,30,4.80
2010,06,03,14,31,9.60
2010,06,03,14,32,8.10
2010,06,03,14,33,3.20
2010,06,03,14,34,11.30
2010,06,03,14,35,8.10
2010,06,03,14,36,8.10
2010,06,03,14,37,9.60
2010,06,03,14,38,6.40
2010,06,03,14,39,11.30
2010,06,03,14,40,11.30
2010,06,03,14,41,9.60
2010,06,03,14,42,14.50
2010,06,03,14,43,4.80
2010,06,03,14,44,14.50
2010,06,03,14,45,14.50
2010,06,03,14,46,16.10
2010,06,03,14,47,11.30
2010,06,03,14,48,6.40
2010,06,03,14,49,9.60
2010,06,03,14,50,9.60
2010,06,03,14,51,6.40
2010,06,03,14,52,11.30
2010,06,03,14,53,11.30
2010,06,03,14,54,14.50
2010,06,03,14,55,11.30
2010,06,03,14,56,9.60
2010,06,03,14,57,16.10
2010,06,03,14,58,11.30
2010,06,03,14,59,11.30
2010,06,03,15,00,8.10
2010,06,03,15,01,8.10
2010,06,03,15,02,9.60
2010,06,03,15,03,8.10
2010,06,03,15,04,6.40
2010,06,03,15,05,9.60
2010,06,03,15,06,6.40
2010,06,03,15,07,6.40
2010,06,03,15,08,12.90
2010,06,03,15,09,11.30
2010,06,03,15,10,8.10
2010,06,03,15,11,4.80
2010,06,03,15,12,9.60
2010,06,03,15,13,6.40
2010,06,03,15,14,11.30
2010,06,03,15,15,9.60
2010,06,03,15,16,11.30
2010,06,03,15,17,11.30
2010,06,03,15,18,9.60
2010,06,03,15,19,9.60
2010,06,03,15,20,11.30
2010,06,03,15,21,9.60
2010,06,03,15,22,4.80
2010,06,03,15,23,9.60
2010,06,03,15,24,8.10
2010,06,03,15,25,6.40
2010,06,03,15,26,11.30
2010,06,03,15,27,11.30
2010,06,03,15,28,6.40
2010,06,03,15,29,8.10
2010,06,03,15,30,8.10
2010,06,03,15,31,3.20
2010,06,03,15,32,6.40
2010,06,03,15,33,11.30
2010,06,03,15,34,6.40
2010,06,03,15,35,6.40
2010,06,03,15,36,14.50
2010,06,03,15,37,9.60
2010,06,03,15,38,4.80
2010,06,03,15,39,9.60
2010,06,03,15,40,8.10
2010,06,03,15,41,9.60
2010,06,03,15,42,6.40
2010,06,03,15,43,6.40
2010,06,03,15,44,3.20
2010,06,03,15,45,8.10
2010,06,03,15,46,9.60
2010,06,03,15,47,6.40
2010,06,03,15,48,9.60
2010,06,03,15,49,4.80
2010,06,03,15,50,4.80
2010,06,03,15,51,8.10
2010,06,03,15,52,6.40
2010,06,03,15,53,6.40
2010,06,03,15,54,8.10
2010,06,03,15,55,6.40
2010,06,03,15,56,8.10
2010,06,03,15,57,9.60
2010,06,03,15,58,6.40
2010,06,03,15,59,11.30
2010,06,03,16,00,4.80
2010,06,03,16,01,4.80
2010,06,03,16,02,3.20
2010,06,03,16,03,3.20
2010,06,03,16,04,4.80
2010,06,03,16,05,11.30
2010,06,03,16,06,16.10
2010,06,03,16,07,8.10
2010,06,03,16,08,6.40
2010,06,03,16,09,4.80
2010,06,03,16,10,8.10
2010,06,03,16,11,6.40
2010,06,03,16,12,4.80
2010,06,03,16,13,6.40
2010,06,03,16,14,3.20
2010,06,03,16,15,4.80
2010,06,03,16,16,8.10
2010,06,03,16,17,9.60
2010,06,03,16,18,8.10
2010,06,03,16,19,8.10
2010,06,03,16,20,6.40
2010,06,03,16,21,4.80
2010,06,03,16,22,3.20
2010,06,03,16,23,4.80
2010,06,03,16,24,1.60
2010,06,03,16,25,6.40
2010,06,03,16,26,8.10
2010,06,03,16,27,8.10
2010,06,03,16,28,4.80
2010,06,03,16,29,6.40
2010,06,03,16,30,4.80
2010,06,03,16,31,6.40
2010,06,03,16,32,3.20
2010,06,03,16,33,6.40
2010,06,03,16,34,6.40
2010,06,03,16,35,3.20
2010,06,03,16,36,4.80
2010,06,03,16,37,3.20
2010,06,03,16,38,3.20
2010,06,03,16,39,1.60
2010,06,03,16,40,3.20
2010,06,03,16,41,8.10
2010,06,03,16,42,6.40
2010,06,03,16,43,3.20
2010,06,03,16,44,6.40
2010,06,03,16,45,8.10
2010,06,03,16,46,4.80
2010,06,03,16,47,6.40
2010,06,03,16,48,9.60
2010,06,03,16,49,8.10
2010,06,03,16,50,6.40
2010,06,03,16,51,11.30
2010,06,03,16,52,9.60
2010,06,03,16,53,11.30
2010,06,03,16,54,4.80
2010,06,03,16,55,3.20
2010,06,03,16,56,6.40
2010,06,03,16,57,4.80
2010,06,03,16,58,4.80
2010,06,03,16,59,4.80
2010,06,03,17,00,4.80
2010,06,03,17,01,9.60
2010,06,03,17,02,14.50
2010,06,03,17,03,12.90
2010,06,03,17,04,11.30
2010,06,03,17,05,9.60
2010,06,03,17,06,6.40
2010,06,03,17,07,8.10
2010,06,03,17,08,6.40
2010,06,03,17,09,8.10
2010,06,03,17,10,6.40
2010,06,03,17,11,9.60
2010,06,03,17,12,6.40
2010,06,03,17,13,9.60
2010,06,03,17,14,8.10
2010,06,03,17,15,11.30
2010,06,03,17,16,8.10
2010,06,03,17,17,8.10
2010,06,03,17,18,6.40
2010,06,03,17,19,8.10
2010,06,03,17,20,8.10
2010,06,03,17,21,4.80
2010,06,03,17,22,6.40
2010,06,03,17,23,6.40
2010,06,03,17,24,6.40
2010,06,03,17,25,8.10
2010,06,03,17,26,8.10
2010,06,03,17,27,4.80
2010,06,03,17,28,9.60
2010,06,03,17,29,6.40
2010,06,03,17,30,8.10
2010,06,03,17,31,8.10
2010,06,03,17,32,9.60
2010,06,03,17,33,9.60
2010,06,03,17,34,6.40
2010,06,03,17,35,6.40
2010,06,03,17,36,6.40
2010,06,03,17,37,6.40
2010,06,03,17,38,8.10
2010,06,03,17,39,11.30
2010,06,03,17,40,14.50
2010,06,03,17,41,14.50
2010,06,03,17,42,8.10
2010,06,03,17,43,17.70
2010,06,03,17,44,11.30
2010,06,03,17,45,16.10
2010,06,03,17,46,8.10
2010,06,03,17,47,6.40
2010,06,03,17,48,12.90
2010,06,03,17,49,6.40
2010,06,03,17,50,8.10
2010,06,03,17,51,4.80
2010,06,03,17,52,3.20
2010,06,03,17,53,6.40
2010,06,03,17,54,6.40
2010,06,03,17,55,8.10
2010,06,03,17,56,6.40
2010,06,03,17,57,6.40
2010,06,03,17,58,4.80
2010,06,03,17,59,8.10
2010,06,03,18,00,6.40
2010,06,03,18,01,9.60
2010,06,03,18,02,9.60
2010,06,03,18,03,9.60
2010,06,03,18,04,9.60
2010,06,03,18,05,6.40
2010,06,03,18,06,6.40
2010,06,03,18,07,8.10
2010,06,03,18,08,4.80
2010,06,03,18,09,6.40
2010,06,03,18,10,6.40
2010,06,03,18,11,3.20
2010,06,03,18,12,6.40
2010,06,03,18,13,4.80
2010,06,03,18,14,8.10
2010,06,03,18,15,8.10
2010,06,03,18,16,8.10
2010,06,03,18,17,8.10
2010,06,03,18,18,6.40
2010,06,03,18,19,4.80
2010,06,03,18,20,3.20
2010,06,03,18,21,3.20
2010,06,03,18,22,4.80
2010,06,03,18,23,6.40
2010,06,03,18,24,4.80
2010,06,03,18,25,4.80
2010,06,03,18,26,6.40
2010,06,03,18,27,4.80
2010,06,03,18,28,4.80
2010,06,03,18,29,3.20
2010,06,03,18,30,6.40
2010,06,03,18,31,6.40
2010,06,03,18,32,4.80
2010,06,03,18,33,4.80
2010,06,03,18,34,3.20
2010,06,03,18,35,3.20
2010,06,03,18,36,1.60
2010,06,03,18,37,4.80
2010,06,03,18,38,6.40
2010,06,03,18,39,4.80
2010,06,03,18,40,4.80
2010,06,03,18,41,4.80
2010,06,03,18,42,3.20
2010,06,03,18,43,4.80
2010,06,03,18,44,4.80
2010,06,03,18,45,4.80
2010,06,03,18,46,8.10
2010,06,03,18,47,6.40
2010,06,03,18,48,9.60
2010,06,03,18,49,6.40
2010,06,03,18,50,4.80
2010,06,03,18,51,4.80
2010,06,03,18,52,4.80
2010,06,03,18,53,4.80
2010,06,03,18,54,4.80
2010,06,03,18,55,4.80
2010,06,03,18,56,4.80
2010,06,03,18,57,3.20
2010,06,03,18,58,3.20
2010,06,03,18,59,4.80
2010,06,03,19,00,4.80
2010,06,03,19,01,8.10
2010,06,03,19,02,4.80
2010,06,03,19,03,4.80
2010,06,03,19,04,3.20
2010,06,03,19,05,3.20
2010,06,03,19,06,3.20
2010,06,03,19,07,3.20
2010,06,03,19,08,3.20
2010,06,03,19,09,3.20
2010,06,03,19,10,6.40
2010,06,03,19,11,8.10
2010,06,03,19,12,6.40
2010,06,03,19,13,6.40
2010,06,03,19,14,6.40
2010,06,03,19,15,6.40
2010,06,03,19,16,3.20
2010,06,03,19,17,1.60
2010,06,03,19,18,3.20
2010,06,03,19,19,3.20
2010,06,03,19,20,4.80
2010,06,03,19,21,3.20
2010,06,03,19,22,6.40
2010,06,03,19,23,1.60
2010,06,03,19,24,3.20
2010,06,03,19,25,1.60
2010,06,03,19,26,1.60
2010,06,03,19,27,1.60
2010,06,03,19,28,3.20
2010,06,03,19,29,8.10
2010,06,03,19,30,8.10
2010,06,03,19,31,8.10
2010,06,03,19,32,8.10